Погода в Колянове

Россия / Ивановская область     56°56′56″N   40°58′07″E
темп.,
°C
ветер,
м/с
пор.,
м/с
влажн.,
%
обл.,
%
осадки,
мм/ч
давл.,
гПа
погр.,
м
24 января, пн
пн2400:00−20зюз11100100 0.0 10359
03:00−21з11100100 0.0 10369
06:00−21юз11100100 0.0 10379
09:00−21ю22100100 0.1 103722
12:00−11юз239685 0.0 1036111
15:00−9ю249632 0.0 1035117
18:00−17юз2210091 0.0 103512
21:00−20ююз22100100 0.0 103422
25 января, вт
вт2500:00−19ююз24100100 0.0 103252
03:00−19ююз26100100 0.0 103061
06:00−20ююз24100100 0.0 102850
09:00−19ююз37100100 0.0 102687
12:00−10ююз499359 0.0 1023230
15:00−9ююз4109582 0.0 1020330
18:00−13ю3109634 0.0 1019190
21:00−15ю389754 0.0 1018138
26 января, ср
ср2600:00−18ю269954 0.0 101781
03:00−19ю2510076 0.0 101665
06:00−23ююз2210075 0.0 101524
09:00−15ю1296100 0.3 101562
12:00−11ююз1193100 0.3 1015165
15:00−8ссз129297 0.6 1015261
18:00−14ссз1110079 0.1 10169
21:00−17сз1110092 0.1 10179
27 января, чт
чт2700:00−18сз2210096 0.1 101718
03:00−21сз22100100 0.1 101810
06:00−23зсз11100100 0.0 10189
09:00−23юз11100100 0.1 10189
12:00−13ю2397100 0.0 1017139
15:00−11ююв2596100 0.1 1016222
18:00−14ююв2799100 0.0 1015116
21:00−14ююв3998100 0.0 1014177
28 января, пт
пт2800:00−13ююв399799 0.0 1013219
03:00−12ююв4119586 0.0 1012296
06:00−12ююв4129487 0.0 1010344
09:00−12ююв41293100 0.0 1010351
12:00−9ююв5139098 0.0 1009462
15:00−8ююв51290100 0.0 1008554
18:00−8ююв51392100 0.0 1006523
21:00−7юв51294100 0.4 1005629